This is the latest recevied weather packets stored in our database for station/object K0QED. If no packets are shown the sender has not sent any weather packets the latest 10 day(s).
| Time | Temp. | Humidity | Pressure | Rain* | Wind** | Luminosity | Snow |
|---|---|---|---|---|---|---|---|
| 1777598295 | 0° C | 99% | 1021.9 hPa | 0 mm | - | 0 W/m² | - |
| 1777597993 | 0° C | 99% | 1021.5 hPa | 0 mm | - | 2 W/m² | - |
| 1777597691 | 0° C | 99% | 1021.6 hPa | 0 mm | - | 3 W/m² | - |
| 1777597388 | 0° C | 99% | 1021.6 hPa | 0 mm | - | 5 W/m² | - |
| 1777597083 | 0° C | 99% | 1021.5 hPa | 0 mm | - | 9 W/m² | - |
| 1777596780 | 0.56° C | 99% | 1021.5 hPa | 0 mm | - | 10 W/m² | - |
| 1777596475 | 0.56° C | 99% | 1021.6 hPa | 0 mm | - | 16 W/m² | - |
| 1777596173 | 0.56° C | 99% | 1021.4 hPa | 0 mm | - | 21 W/m² | - |
| 1777595870 | 0.56° C | 99% | 1021.5 hPa | 0 mm | - | 24 W/m² | - |
| 1777595564 | 0.56° C | 99% | 1021.7 hPa | 0 mm | - | 23 W/m² | - |
| 1777595261 | 0.56° C | 99% | 1021.6 hPa | 0 mm | - | 15 W/m² | - |
| 1777594957 | 0.56° C | 99% | 1021.6 hPa | 0 mm | - | 18 W/m² | - |
| 1777594653 | 0.56° C | 99% | 1021.6 hPa | 0 mm | - | 36 W/m² | - |
| 1777594350 | 0.56° C | 99% | 1021.6 hPa | 1.78 mm | - | 47 W/m² | - |
| 1777594046 | 0.56° C | 99% | 1021.6 hPa | 1.78 mm | - | 42 W/m² | - |
| 1777593742 | 0.56° C | 99% | 1021.5 hPa | 0 mm | - | 38 W/m² | - |
| 1777593438 | 0.56° C | 99% | 1021.6 hPa | 0 mm | - | 32 W/m² | - |
| 1777593136 | 0.56° C | 99% | 1021.5 hPa | 0 mm | - | 32 W/m² | - |
| 1777592836 | 0.56° C | 99% | 1021.6 hPa | 0 mm | - | 40 W/m² | - |
| 1777592533 | 0.56° C | 99% | 1021.4 hPa | 1.78 mm | - | 43 W/m² | - |
| 1777592228 | 0.56° C | 99% | 1021.7 hPa | 0 mm | - | 46 W/m² | - |
| 1777591925 | 0.56° C | 99% | 1021.5 hPa | 0 mm | - | 47 W/m² | - |
| 1777591621 | 0.56° C | 99% | 1021.4 hPa | 0 mm | - | 55 W/m² | - |
| 1777591317 | 0.56° C | 99% | 1021.5 hPa | 0 mm | - | 44 W/m² | - |
| 1777591013 | 0.56° C | 99% | 1021.5 hPa | 0 mm | - | 29 W/m² | - |
* Rain latest hour (hover to see other rain measurements)
** Current wind speed in m/s (hover to see current wind gust speed)